Location: Aubervilles
(48.9167°N, 2.3833°E)
Time: 12:47:30
(UTC+00:00)

DMSP B5D2-2 - Pass Details

Date: 03 February 2023
Orbit: 788 x 805 km, 98.3° (Epoch: 26 March)

Event Time Altitude Azimuth Distance (km) Brightness Sun altitude
Rises 17:26:52 0° 16° (NNE) 3,333 7.0 -6.4°
Reaches altitude 10° 17:29:16 10° 21° (NNE) 2,397 6.2 -6.7°
Maximum altitude 17:34:30 59° 101° (E) 924 4.2 -7.6°
Drops below altitude 10° 17:39:41 10° 181° (S) 2,370 6.8 -8.4°
Sets 17:42:02 0° 185° (S) 3,293 7.6 -8.8°
